Durban Hub Information

GPS Position: 2936'52"S / 3106'59"E Runways: 06 / 24
Fuel available: 100 and Jet Magnetic Variation: 24W
Elevation: 295 ft Approaches: ILS LOC / DME
Maximum Runway Length: 12139 x 196ft Hours of Operation: 24 Hours

Current VATSIM METAR

FALE 021800Z 02005KT CAVOK 14/09 Q1027 NOSIG

Durban Domestic and Regional Flights